[[{"header":{"parameterUnit":"m.s-1","parameterCategory":1,"la1":30.2991,"la2":30.254,"lo1":-89.0895,"lo2":-89.0444,"dy":0.0017,"dx":0.0017,"nx":28,"ny":28,"refTime":"2023-11-07T03:00:00:Z","depth":0,"parameterNumber":2,"parameterNumberName":"U-component_of_WINDS"},"data":[0,0,0,0,0,0,0,0,0,0,0,0,0,0,0,0,0,0,0,0,0,0,0,0,0,0,0,0,0,0,0,0,0,0,0,0,0,0,0,0,0,0,0,0,0,0,0,0,0,0,0,0,0,0,0,0,0,0,-0.4118,-0.4118,0,-0.406,-0.4059,-0.4058,-0.4031,-0.4031,-0.4031,-0.4031,-0.3971,-0.3969,-0.3968,0,0,0,0,0,0,0,0,0,0,0,0,0,-0.4205,-0.4204,-0.4118,-0.4117,-0.4117,-0.406,-0.4059,-0.4058,-0.4031,-0.4031,-0.4031,-0.4031,-0.3971,-0.3969,-0.3967,0,0,0,0,0,0,0,0,0,0,0,0,0,-0.4159,-0.4203,-0.4118,-0.4096,-0.4094,-0.406,-0.4059,-0.4058,-0.4031,-0.4031,-0.4031,-0.4031,-0.3972,-0.397,-0.3967,-0.3951,0,0,-0.396,-0.3959,0,0,0,0,0,0,0,0,-0.4162,-0.4156,-0.41,-0.4098,-0.4095,-0.4053,-0.4068,-0.4022,-0.4031,-0.4055,-0.4031,-0.4031,-0.3998,-0.3993,-0.3982,-0.3948,-0.3945,-0.3959,-0.3958,-0.3957,-0.3956,0,0,0,0,0,0,0,-0.4165,-0.4158,-0.4095,-0.41,-0.4096,-0.4089,-0.4083,-0.4059,-0.4027,-0.4053,-0.4051,-0.4044,-0.3997,-0.3985,-0.3981,-0.3944,-0.3959,-0.3957,-0.3956,-0.3955,-0.3893,-0.3893,0,0,0,0,0,0,-0.4172,-0.4161,-0.4097,-0.4093,-0.4129,-0.4088,-0.408,-0.4066,-0.4027,-0.4021,-0.4044,-0.4043,-0.3989,-0.3984,-0.3978,-0.3956,-0.3957,-0.3955,-0.3953,-0.3893,-0.3893,-0.3893,0,0,0,0,0,0,-0.4174,-0.4166,-0.4099,-0.4127,-0.4118,-0.4086,-0.407,-0.4065,-0.4053,-0.402,-0.4015,-0.4038,-0.3989,-0.3982,-0.3958,-0.3954,-0.3953,-0.3951,-0.3893,-0.3893,-0.3893,-0.3911,0,0,0,0,0,0,-0.4177,-0.4167,-0.4161,-0.4127,-0.4116,-0.408,-0.407,-0.4064,-0.4049,-0.4047,-0.4013,-0.4008,-0.3988,-0.3962,-0.3955,-0.395,-0.3949,-0.3893,-0.3893,-0.3893,-0.3911,-0.3912,-0.3913,0,0,0,0,0,-0.418,-0.4169,-0.4161,-0.4153,-0.4108,-0.408,-0.4074,-0.4052,-0.4049,-0.4042,-0.4021,-0.4009,-0.3955,-0.3959,-0.3952,-0.3946,-0.3893,-0.3893,-0.3893,-0.3911,-0.3912,-0.3913,0,0,0,0,0,0,-0.4203,-0.4164,-0.4155,-0.4132,-0.411,-0.4075,-0.4066,-0.4054,-0.4031,-0.403,-0.4004,-0.3996,-0.3974,-0.3958,-0.3963,-0.3928,-0.3923,-0.3921,-0.3939,-0.394,-0.3941,-0.3945,-0.3947,0,0,0,0,0,-0.4206,-0.4187,-0.4153,-0.4136,-0.4126,-0.4098,-0.4085,-0.407,-0.4045,-0.4035,-0.4012,-0.3989,-0.3966,-0.3952,-0.393,-0.3909,-0.39,-0.3901,-0.3902,-0.3903,-0.3901,-0.3888,-0.3887,-0.3891,-0.3891,-0.3891,0,0,-0.4211,-0.4187,-0.4176,-0.4141,-0.4121,-0.4101,-0.409,-0.407,-0.4055,-0.4032,-0.4008,-0.399,-0.3962,-0.3939,-0.3928,-0.3924,-0.3898,-0.3902,-0.3903,-0.3901,-0.3887,-0.3887,-0.3887,-0.3891,-0.3891,-0.3891,0,0,-0.421,-0.419,-0.4174,-0.4155,-0.4126,-0.4107,-0.4103,-0.407,-0.4058,-0.4033,-0.4016,-0.3997,-0.396,-0.394,-0.3925,-0.3917,-0.3904,-0.391,-0.3914,-0.3901,-0.3901,-0.3901,-0.3897,-0.3896,-0.3909,-0.3909,-0.3909,0,-0.422,-0.419,-0.4167,-0.4148,-0.4132,-0.4111,-0.4094,-0.4076,-0.4042,-0.4031,-0.4028,-0.398,-0.396,-0.3931,-0.3929,-0.3918,-0.3913,-0.3914,-0.3903,-0.3902,-0.3902,-0.3898,-0.3897,-0.391,-0.391,-0.391,-0.391,0,-0.4203,-0.4182,-0.4173,-0.4139,-0.4123,-0.4105,-0.4079,-0.4065,-0.4051,-0.4033,-0.4008,-0.3983,-0.3955,-0.3947,-0.3934,-0.3917,-0.3915,-0.3908,-0.3903,-0.3903,-0.3899,-0.3897,-0.3911,-0.3911,-0.3911,-0.391,0,0,-0.4215,-0.4169,-0.4166,-0.415,-0.4117,-0.41,-0.4081,-0.4054,-0.4042,-0.4018,-0.4001,-0.397,-0.3963,-0.3946,-0.393,-0.3919,-0.3913,-0.3913,-0.3912,-0.3914,-0.3892,-0.3898,-0.3896,-0.3905,-0.3905,-0.3904,-0.3894,0,-0.4209,-0.4174,-0.4153,-0.4126,-0.4106,-0.4086,-0.4069,-0.4046,-0.4028,-0.4009,-0.3989,-0.3967,-0.396,-0.395,-0.3938,-0.3917,-0.3909,-0.3917,-0.3888,-0.3888,-0.3896,-0.3894,-0.39,-0.3892,-0.3893,-0.3893,-0.3892,0,-0.4197,-0.4174,-0.4145,-0.4113,-0.4104,-0.4089,-0.4062,-0.4044,-0.4018,-0.4006,-0.3987,-0.3971,-0.395,-0.3947,-0.3916,-0.3923,-0.391,-0.3897,-0.3897,-0.3893,-0.389,-0.389,-0.3889,-0.3887,-0.389,-0.389,-0.389,0,-0.4208,-0.417,-0.4148,-0.4135,-0.4097,-0.4087,-0.4071,-0.4045,-0.4029,-0.4006,-0.3996,-0.397,-0.3956,-0.3936,-0.3914,-0.3914,-0.3885,-0.3881,-0.3874,-0.3875,-0.3869,-0.3869,-0.3865,-0.3862,-0.3862,-0.3862,-0.3862,0,-0.4203,-0.4186,-0.4152,-0.4138,-0.4118,-0.4094,-0.4075,-0.4057,-0.4034,-0.4016,-0.3997,-0.3981,-0.3952,-0.3932,-0.3915,-0.3892,-0.3886,-0.3875,-0.387,-0.3876,-0.3878,-0.3867,-0.3867,-0.3861,-0.3861,-0.3861,-0.3862,0,-0.4212,-0.4189,-0.4163,-0.4129,-0.412,-0.4107,-0.4078,-0.4063,-0.4045,-0.4022,-0.4016,-0.3986,-0.3962,-0.3938,-0.3905,-0.3893,-0.387,-0.3864,-0.3879,-0.3876,-0.3871,-0.3872,-0.3859,-0.3856,-0.3856,-0.3856,-0.3856,0,-0.421,-0.4197,-0.4161,-0.4148,-0.4132,-0.4111,-0.4095,-0.4071,-0.4055,-0.4024,-0.4013,-0.3987,-0.3965,-0.3927,-0.3903,-0.3877,-0.387,-0.3868,-0.3866,-0.3872,-0.3869,-0.387,-0.3868,-0.3868,-0.3868,-0.3868,-0.3868,0,-0.421,-0.4198,-0.4177,-0.415,-0.4132,-0.4111,-0.4088,-0.4078,-0.405,-0.4033,-0.4008,-0.399,-0.3957,-0.3931,-0.3903,-0.3886,-0.3872,-0.3869,-0.3866,-0.3872,-0.3881,-0.3875,-0.388,-0.3869,-0.3869,-0.3869,-0.3869,-0.3869,-0.4212,-0.4199,-0.4172,-0.4148,-0.4129,-0.4108,-0.4093,-0.4072,-0.4051,-0.4021,-0.4008,-0.3983,-0.3956,-0.3917,-0.39,-0.3879,-0.3876,-0.3872,-0.3871,-0.387,-0.3871,-0.3885,-0.3874,-0.3874,-0.3874,-0.3874,-0.3874,0,-0.421,-0.4191,-0.417,-0.4139,-0.412,-0.4109,-0.4084,-0.4069,-0.4046,-0.4023,-0.4001,-0.3972,-0.3947,-0.3921,-0.3894,-0.3883,-0.3876,-0.3876,-0.3877,-0.3873,-0.3876,-0.3881,-0.3882,-0.3882,-0.3882,-0.3882,-0.3882,-0.3882,-0.4207,-0.4183,-0.4169,-0.4136,-0.4117,-0.4092,-0.4078,-0.4059,-0.404,-0.4008,-0.3987,-0.397,-0.3945,-0.3917,-0.3893,-0.3886,-0.3877,-0.3879,-0.387,-0.3873,-0.3873,-0.3872,-0.3877,-0.3877,-0.3877,-0.3869,-0.3869,-0.3869]},{"header":{"parameterUnit":"m.s-1","parameterCategory":1,"la1":30.2991,"la2":30.254,"lo1":-89.0895,"lo2":-89.0444,"dy":0.0017,"dx":0.0017,"nx":28,"ny":28,"refTime":"2023-11-07T03:00:00:Z","depth":0,"parameterNumber":3,"parameterNumberName":"V-component_of_WINDS"},"data":[0,0,0,0,0,0,0,0,0,0,0,0,0,0,0,0,0,0,0,0,0,0,0,0,0,0,0,0,0,0,0,0,0,0,0,0,0,0,0,0,0,0,0,0,0,0,0,0,0,0,0,0,0,0,0,0,0,0,3.3839,3.3838,0,3.3769,3.3768,3.3768,3.3749,3.375,3.375,3.3751,3.3671,3.3669,3.3667,0,0,0,0,0,0,0,0,0,0,0,0,0,3.3951,3.3949,3.3839,3.3838,3.3837,3.3769,3.3768,3.3767,3.3749,3.375,3.375,3.3751,3.3672,3.3669,3.3666,0,0,0,0,0,0,0,0,0,0,0,0,0,3.3893,3.3948,3.3839,3.382,3.3818,3.377,3.3768,3.3767,3.3749,3.375,3.375,3.3751,3.3673,3.367,3.3666,3.3629,0,0,3.3654,3.3653,0,0,0,0,0,0,0,0,3.3897,3.3889,3.3824,3.3821,3.3819,3.3769,3.3779,3.3721,3.3749,3.3775,3.3751,3.3751,3.3703,3.3697,3.3682,3.3625,3.3622,3.3654,3.3652,3.365,3.3649,0,0,0,0,0,0,0,3.3901,3.3892,3.3811,3.3823,3.382,3.3813,3.3806,3.3768,3.3736,3.3773,3.3771,3.3764,3.3701,3.3686,3.368,3.3621,3.3654,3.3651,3.3648,3.3647,3.3532,3.3532,0,0,0,0,0,0,3.3909,3.3896,3.3813,3.3809,3.386,3.3811,3.3802,3.3784,3.3736,3.373,3.3763,3.3763,3.3692,3.3684,3.3677,3.3632,3.365,3.3647,3.3644,3.3533,3.3532,3.3531,0,0,0,0,0,0,3.3911,3.3902,3.3816,3.3852,3.3841,3.3808,3.3787,3.3782,3.3766,3.3729,3.3723,3.3753,3.3692,3.3682,3.3642,3.3629,3.3645,3.3641,3.3534,3.3533,3.3532,3.3542,0,0,0,0,0,0,3.3915,3.3903,3.389,3.3852,3.3839,3.3784,3.3787,3.378,3.3761,3.376,3.3718,3.3711,3.3692,3.3648,3.3638,3.3624,3.3638,3.3535,3.3534,3.3532,3.3542,3.3541,3.354,0,0,0,0,0,3.3919,3.3893,3.3889,3.3879,3.3822,3.3784,3.3776,3.3756,3.376,3.3746,3.3722,3.3713,3.3632,3.3644,3.3633,3.3618,3.3536,3.3534,3.3532,3.3543,3.3541,3.354,0,0,0,0,0,0,3.3927,3.3888,3.3883,3.3845,3.3818,3.3781,3.3762,3.3754,3.3724,3.3724,3.3698,3.3689,3.3651,3.363,3.3644,3.358,3.3584,3.358,3.3595,3.3594,3.3592,3.3598,3.3635,0,0,0,0,0,3.3925,3.3899,3.3865,3.3834,3.3822,3.3795,3.3777,3.3764,3.3734,3.3722,3.3695,3.3665,3.3633,3.3612,3.358,3.3539,3.353,3.3523,3.3522,3.3521,3.3518,3.3496,3.3493,3.3526,3.3526,3.3526,0,0,3.3919,3.3894,3.3879,3.3836,3.3814,3.3786,3.3785,3.3755,3.3734,3.3716,3.3678,3.3658,3.3622,3.3582,3.3563,3.3563,3.3507,3.3519,3.3519,3.3516,3.3494,3.3491,3.3488,3.3525,3.3525,3.3525,0,0,3.3895,3.3874,3.3847,3.3826,3.3794,3.3776,3.377,3.3734,3.3721,3.3682,3.367,3.3643,3.3588,3.3563,3.3544,3.3513,3.3504,3.3503,3.3496,3.3475,3.3473,3.347,3.346,3.3457,3.35,3.35,3.35,0,3.3891,3.3851,3.3833,3.3806,3.3787,3.3773,3.3746,3.3725,3.3683,3.3669,3.3671,3.3604,3.3578,3.3533,3.3526,3.3511,3.3502,3.3508,3.3475,3.3472,3.347,3.346,3.3456,3.35,3.35,3.35,3.35,0,3.3849,3.3821,3.3803,3.3767,3.3746,3.3718,3.3695,3.3675,3.3665,3.3647,3.3608,3.3578,3.3541,3.3529,3.3516,3.3482,3.3484,3.3481,3.3484,3.3467,3.3458,3.3453,3.3501,3.3501,3.3501,3.35,0,0,3.3826,3.3783,3.3776,3.3761,3.3725,3.3702,3.3674,3.3641,3.3625,3.3596,3.3571,3.3526,3.3524,3.3502,3.3487,3.3469,3.3448,3.3468,3.3467,3.3466,3.3409,3.3412,3.3408,3.3442,3.3441,3.344,3.3412,0,3.3798,3.375,3.3734,3.3693,3.3667,3.3655,3.363,3.3605,3.3587,3.3562,3.3541,3.3511,3.351,3.3496,3.3478,3.3455,3.3436,3.3456,3.3417,3.3416,3.3427,3.3402,3.3405,3.338,3.3408,3.3407,3.3407,0,3.3758,3.3734,3.3691,3.3661,3.365,3.3628,3.3597,3.3573,3.3544,3.3533,3.351,3.3497,3.3465,3.3471,3.3426,3.3441,3.3423,3.341,3.3408,3.3404,3.341,3.3398,3.3371,3.3368,3.34,3.3401,3.3401,0,3.3748,3.3703,3.3673,3.3659,3.3623,3.3608,3.3592,3.3564,3.3545,3.3518,3.3505,3.3473,3.3455,3.343,3.3408,3.3414,3.3366,3.3369,3.3355,3.3356,3.3345,3.3346,3.3316,3.3334,3.3334,3.3334,3.3334,0,3.3718,3.3693,3.3668,3.3649,3.362,3.3602,3.3573,3.3555,3.3531,3.3507,3.3493,3.3471,3.3444,3.3418,3.34,3.3367,3.3358,3.3347,3.3343,3.3349,3.3351,3.3337,3.3339,3.3333,3.3333,3.3333,3.3333,0,3.3701,3.3683,3.3649,3.3619,3.3611,3.3591,3.3564,3.3545,3.3528,3.3498,3.349,3.3462,3.3431,3.3408,3.3365,3.3354,3.3319,3.3314,3.3329,3.3327,3.3315,3.3317,3.3275,3.3269,3.3291,3.329,3.329,0,3.3684,3.3665,3.3634,3.3619,3.3604,3.3579,3.3561,3.3542,3.3524,3.3491,3.3475,3.3444,3.3418,3.3368,3.3342,3.3311,3.3305,3.3293,3.33,3.3307,3.3306,3.3308,3.3306,3.3292,3.3292,3.3292,3.3292,0,3.3655,3.3648,3.3625,3.3599,3.3579,3.3557,3.3534,3.3522,3.3499,3.3479,3.3448,3.3428,3.3388,3.3356,3.3323,3.3303,3.3293,3.329,3.3285,3.3291,3.3301,3.3297,3.3328,3.3291,3.3291,3.3291,3.3291,3.3291,3.3638,3.3621,3.3598,3.3572,3.3554,3.3534,3.3515,3.3498,3.3473,3.3441,3.343,3.3399,3.3371,3.3325,3.3306,3.328,3.328,3.3272,3.3271,3.3269,3.327,3.3306,3.3273,3.3273,3.3273,3.3273,3.3273,0,3.3609,3.3595,3.3572,3.3543,3.3523,3.3519,3.3494,3.3477,3.345,3.3427,3.3403,3.3368,3.3338,3.3312,3.328,3.3265,3.3259,3.3257,3.3258,3.3254,3.3272,3.328,3.3262,3.3262,3.3262,3.3262,3.3262,3.3262,3.3592,3.3564,3.3555,3.3518,3.3502,3.3474,3.3461,3.3441,3.3423,3.3386,3.3363,3.3347,3.3322,3.3289,3.3261,3.3254,3.3243,3.3242,3.3233,3.3251,3.3252,3.3254,3.3261,3.324,3.324,3.3218,3.3217,3.3217]}]]